Hourly Weather Abramovo

Today, 23 April, Friday

Time Temperature Precipitation Wind Pressure Humidity
00:00 +1°C° 0 mm 4 mps 746 mmHg 77%
01:00 +1°C° 0 mm 4 mps 746 mmHg 77%
02:00 0°C° 0 mm 4 mps 747 mmHg 77%
03:00 0°C° 0 mm 4 mps 747 mmHg 78%
04:00 -1°C° 0 mm 4 mps 747 mmHg 79%
05:00 -1°C° 0 mm 4 mps 747 mmHg 80%
06:00 0°C° 0 mm 5 mps 747 mmHg 77%
07:00 +1°C° 0 mm 5 mps 747 mmHg 73%
08:00 +2°C° 0 mm 5 mps 748 mmHg 70%
09:00 +3°C° 0.1 mm 5 mps 748 mmHg 65%
10:00 +4°C° 0.1 mm 6 mps 748 mmHg 59%
11:00 +5°C° 0.1 mm 6 mps 748 mmHg 54%
12:00 +5°C° 0.2 mm 6 mps 748 mmHg 54%
13:00 +5°C° 0.2 mm 7 mps 748 mmHg 53%
14:00 +6°C° 0.2 mm 8 mps 748 mmHg 52%
15:00 +6°C° 0.3 mm 7 mps 748 mmHg 52%
16:00 +5°C° 0.3 mm 7 mps 748 mmHg 53%
17:00 +5°C° 0.3 mm 6 mps 748 mmHg 53%
18:00 +5°C° 0 mm 5 mps 748 mmHg 53%
19:00 +3°C° 0 mm 5 mps 748 mmHg 53%
20:00 +3°C° 0 mm 4 mps 749 mmHg 54%
21:00 +1°C° 0 mm 4 mps 749 mmHg 58%
22:00 0°C° 0 mm 4 mps 749 mmHg 62%
23:00 0°C° 0 mm 3 mps 750 mmHg 66%

Tomorrow, 24 April, Saturday

Time Temperature Precipitation Wind Pressure Humidity
00:00 -1°C° 0 mm 3 mps 750 mmHg 68%
01:00 -1°C° 0 mm 3 mps 750 mmHg 70%
02:00 -2°C° 0 mm 3 mps 750 mmHg 72%
03:00 -2°C° 0 mm 3 mps 750 mmHg 72%
04:00 -2°C° 0 mm 3 mps 750 mmHg 72%
05:00 -2°C° 0 mm 3 mps 750 mmHg 72%
06:00 0°C° 0 mm 3 mps 750 mmHg 66%
07:00 0°C° 0 mm 4 mps 750 mmHg 60%
08:00 +3°C° 0 mm 4 mps 750 mmHg 53%
09:00 +4°C° 0 mm 4 mps 750 mmHg 47%
10:00 +5°C° 0 mm 4 mps 750 mmHg 41%
11:00 +6°C° 0 mm 5 mps 750 mmHg 35%
12:00 +7°C° 0 mm 5 mps 750 mmHg 35%
13:00 +7°C° 0 mm 5 mps 750 mmHg 36%
14:00 +7°C° 0 mm 5 mps 750 mmHg 36%
15:00 +7°C° 0 mm 5 mps 750 mmHg 40%
16:00 +7°C° 0 mm 5 mps 749 mmHg 43%
17:00 +7°C° 0 mm 5 mps 749 mmHg 47%
18:00 +5°C° 0.1 mm 4 mps 749 mmHg 54%
19:00 +4°C° 0.1 mm 3 mps 749 mmHg 62%
20:00 +5°C° 0.1 mm 1 mps 749 mmHg 70%
21:00 +3°C° 0.3 mm 2 mps 749 mmHg 77%
22:00 +1°C° 0.3 mm 3 mps 749 mmHg 85%
23:00 0°C° 0.3 mm 3 mps 749 mmHg 93%

Day after tomorrow, 25 April, Sunday

Time Temperature Precipitation Wind Pressure Humidity
00:00 0°C° 0.3 mm 3 mps 749 mmHg 92%
01:00 -1°C° 0.3 mm 3 mps 749 mmHg 91%
02:00 -1°C° 0.3 mm 3 mps 749 mmHg 90%
03:00 -2°C° 0 mm 3 mps 749 mmHg 90%
04:00 -4°C° 0 mm 3 mps 749 mmHg 91%
05:00 -5°C° 0 mm 3 mps 749 mmHg 91%
06:00 -2°C° 0 mm 3 mps 750 mmHg 86%
07:00 -2°C° 0 mm 4 mps 750 mmHg 80%
08:00 0°C° 0 mm 4 mps 750 mmHg 75%
09:00 +1°C° 0.1 mm 4 mps 750 mmHg 67%
10:00 +2°C° 0.1 mm 5 mps 750 mmHg 60%
11:00 +3°C° 0.1 mm 5 mps 750 mmHg 53%
12:00 +5°C° 0.3 mm 5 mps 749 mmHg 52%
13:00 +5°C° 0.3 mm 5 mps 749 mmHg 51%
14:00 +5°C° 0.3 mm 6 mps 749 mmHg 50%
15:00 +5°C° 0.2 mm 5 mps 749 mmHg 52%
16:00 +5°C° 0.2 mm 5 mps 749 mmHg 54%
17:00 +5°C° 0.2 mm 5 mps 749 mmHg 55%
18:00 +4°C° 0.2 mm 4 mps 749 mmHg 63%
19:00 +3°C° 0.2 mm 3 mps 749 mmHg 71%
20:00 +2°C° 0.2 mm 2 mps 749 mmHg 79%
21:00 +2°C° 0 mm 2 mps 749 mmHg 81%
22:00 +2°C° 0 mm 2 mps 749 mmHg 82%
23:00 +1°C° 0 mm 2 mps 749 mmHg 84%

26 April, Monday

Time Temperature Precipitation Wind Pressure Humidity
00:00 -1°C° 0 mm 2 mps 749 mmHg 85%
01:00 -1°C° 0 mm 3 mps 749 mmHg 86%
02:00 -2°C° 0 mm 3 mps 749 mmHg 88%
03:00 -4°C° 0 mm 3 mps 749 mmHg 89%
04:00 -4°C° 0 mm 3 mps 749 mmHg 89%
05:00 -5°C° 0 mm 3 mps 749 mmHg 90%
06:00 -2°C° 0 mm 3 mps 749 mmHg 83%
07:00 -2°C° 0 mm 4 mps 749 mmHg 75%
08:00 0°C° 0 mm 4 mps 749 mmHg 68%
09:00 +1°C° 0.1 mm 5 mps 748 mmHg 61%
10:00 +2°C° 0.1 mm 5 mps 748 mmHg 55%
11:00 +3°C° 0.1 mm 5 mps 748 mmHg 49%
12:00 +5°C° 0.1 mm 5 mps 748 mmHg 47%
13:00 +5°C° 0.1 mm 5 mps 747 mmHg 45%
14:00 +6°C° 0.1 mm 5 mps 747 mmHg 43%
15:00 +6°C° 0.1 mm 5 mps 747 mmHg 46%
16:00 +6°C° 0.1 mm 5 mps 746 mmHg 48%
17:00 +6°C° 0.1 mm 5 mps 746 mmHg 50%
18:00 +4°C° 0.2 mm 4 mps 746 mmHg 59%
19:00 +3°C° 0.2 mm 3 mps 746 mmHg 68%
20:00 +2°C° 0.2 mm 2 mps 746 mmHg 76%
21:00 +2°C° 0 mm 2 mps 746 mmHg 79%
22:00 +1°C° 0 mm 2 mps 746 mmHg 82%
23:00 +1°C° 0 mm 2 mps 746 mmHg 84%

27 April, Tuesday

Time Temperature Precipitation Wind Pressure Humidity
00:00 -1°C° 0 mm 2 mps 746 mmHg 84%
01:00 -1°C° 0 mm 3 mps 746 mmHg 84%
02:00 -2°C° 0 mm 3 mps 746 mmHg 84%
03:00 -2°C° 0 mm 3 mps 746 mmHg 83%
04:00 -2°C° 0 mm 3 mps 746 mmHg 83%
05:00 -2°C° 0 mm 2 mps 746 mmHg 82%
06:00 -1°C° 0 mm 3 mps 746 mmHg 74%
07:00 +1°C° 0 mm 3 mps 746 mmHg 67%
08:00 +1°C° 0 mm 4 mps 746 mmHg 59%
09:00 +4°C° 0 mm 4 mps 746 mmHg 55%
10:00 +5°C° 0 mm 4 mps 746 mmHg 50%
11:00 +7°C° 0 mm 4 mps 746 mmHg 46%
12:00 +7°C° 0 mm 4 mps 746 mmHg 47%
13:00 +9°C° 0 mm 3 mps 746 mmHg 47%
14:00 +9°C° 0 mm 3 mps 746 mmHg 47%
15:00 +9°C° 0 mm 2 mps 745 mmHg 48%
16:00 +9°C° 0 mm 2 mps 745 mmHg 48%
17:00 +10°C° 0 mm 1 mps 745 mmHg 49%
18:00 +9°C° 0 mm 1 mps 745 mmHg 55%
19:00 +7°C° 0 mm 2 mps 745 mmHg 61%
20:00 +5°C° 0 mm 2 mps 745 mmHg 67%
21:00 +5°C° 0 mm 2 mps 745 mmHg 70%
22:00 +5°C° 0 mm 2 mps 745 mmHg 72%
23:00 +3°C° 0 mm 3 mps 745 mmHg 74%

28 April, Wednesday

Time Temperature Precipitation Wind Pressure Humidity
00:00 +3°C° 0 mm 3 mps 744 mmHg 75%
01:00 +3°C° 0 mm 3 mps 744 mmHg 75%
02:00 +2°C° 0 mm 3 mps 744 mmHg 76%
03:00 +3°C° 0 mm 3 mps 743 mmHg 76%
04:00 +3°C° 0 mm 3 mps 743 mmHg 75%
05:00 +3°C° 0 mm 3 mps 742 mmHg 75%
06:00 +3°C° 0 mm 4 mps 742 mmHg 73%
07:00 +4°C° 0 mm 4 mps 742 mmHg 70%
08:00 +5°C° 0 mm 4 mps 741 mmHg 68%
09:00 +5°C° 0.4 mm 4 mps 741 mmHg 73%
10:00 +5°C° 0.4 mm 4 mps 740 mmHg 78%
11:00 +5°C° 0.4 mm 4 mps 740 mmHg 83%
12:00 +5°C° 0.6 mm 3 mps 739 mmHg 86%
13:00 +5°C° 0.6 mm 3 mps 739 mmHg 90%
14:00 +6°C° 0.6 mm 2 mps 738 mmHg 94%
15:00 +6°C° 0.5 mm 2 mps 738 mmHg 95%
16:00 +6°C° 0.5 mm 2 mps 738 mmHg 96%
17:00 +7°C° 0.5 mm 1 mps 737 mmHg 97%
18:00 +6°C° 1.2 mm 2 mps 737 mmHg 98%
19:00 +6°C° 1.2 mm 2 mps 737 mmHg 98%
20:00 +6°C° 1.2 mm 2 mps 737 mmHg 98%
21:00 +5°C° 0.2 mm 3 mps 737 mmHg 98%
22:00 +4°C° 0.2 mm 3 mps 737 mmHg 97%
23:00 +4°C° 0.2 mm 3 mps 737 mmHg 96%
Show more